User: anonymous   Login
Location: ?astrovice
(49.6513°N, 14.9287°E)
Time: 18:17:33
(UTC+00:00)
Language:

SJ-11-03 DEB - Orbit

View from above orbital plane
View from above orbital plane
View from above satellite
View from above satellite

Ground track
Ground track

The orbit data is extracted from the following two-line orbital elements,

1 37735U 11030F   20297.92704330 +.00000941 +00000-0 +19262-3 0  9995
2 37735 098.5134 090.3314 0085205 196.2658 283.7206 14.61080708493991
Epoch (UTC): 23 October 2020 22:14:56
Eccentricity: 0.0085205
inclination: 98.5134°
perigee height: 629 km
apogee height: 750 km
right ascension of ascending node: 90.3314°
argument of perigee: 196.2658°
revolutions per day: 14.61080708
mean anomaly at epoch: 283.7206°
orbit number at epoch: 49399

The dashed part of the orbit path shows where the satellite is in the earth's shadow,  

DLR